Location: Mannheim
(49.4880°N, 8.4650°E)
Time: 05:17:30
(UTC+02:00)

ACS3 Solar Sail - Pass Details

Date: 28 September 2024
Orbit: 963 x 1036 km, 97.4° (Epoch: 04 October)

Event Time Altitude Azimuth Distance (km) Brightness Sun altitude
Exits shadow 21:44:57 23° 183° (S) 2,047 3.2 -25.1°
Maximum altitude 21:49:08 66° 260° (W) 1,126 2.2 -25.7°
Drops below altitude 10° 21:55:30 10° 342° (NNW) 2,827 4.8 -26.6°
Sets 21:58:02 0° 346° (NNW) 3,774 5.5 -26.9°
